Location: Los Gatos B&B
(42.6926°N, 77.0646°W)
Time: 17:58:19
(UTC-05:00)

Amateur Radio Satellites - All Passes

Search period start: 26 November 2014 17:28
Search period end: 27 November 2014 17:28
Location: Los Gatos B&B, 42.6926°N, 77.0646°W

Satellite Date Start Highest point End Downlink Frequencies (MHz)
Time Altitude Azimuth
VERMONT LUNAR 26 Nov 17:29:52 17:33:26 54° 189° (S) 17:36:59 437.305
STRAND 1 26 Nov 17:43:37 17:45:43 12° 89° (E) 17:47:49 437.568
PRISM 26 Nov 17:50:16 17:54:11 35° 98° (E) 17:58:02 437.425
Cubesat XI-IV 26 Nov 18:11:49 18:16:56 44° 261° (W) 18:22:04 437.490
JAS-2 26 Nov 18:21:33 18:26:48 20° 273° (W) 18:32:11 435.910
MOZHAYETS 4 26 Nov 18:28:57 18:32:15 20° 296° (WNW) 18:35:32
RS-15 26 Nov 18:29:43 18:39:34 37° 326° (NW) 18:49:35 29.354- 29.394
CUBESAT XI-V 26 Nov 18:34:05 18:38:31 41° 98° (E) 18:42:54 437.345
BRITE-PL 26 Nov 18:46:36 18:47:50 11° 61° (ENE) 18:49:02 437.365/2234.400
BEESAT 3 26 Nov 18:48:28 18:49:56 12° 108° (ESE) 18:51:26 437.485
PCSat 26 Nov 18:53:03 18:57:51 34° 110° (ESE) 19:02:42 145.827
CUTE-I 26 Nov 18:54:43 18:58:31 20° 268° (W) 19:02:20 437.470
AIST 1 26 Nov 18:56:09 18:59:52 28° 89° (E) 19:03:38
HO-68 26 Nov 18:56:37 19:02:42 31° 60° (ENE) 19:08:47 435.675
PHONESAT 2.4 26 Nov 18:59:56 19:03:18 32° 200° (SSW) 19:06:39 2401.200-2431.200
GONETS M04 26 Nov 19:00:39 19:09:25 62° 78° (ENE) 19:18:04
BEESAT 2 26 Nov 19:03:20 19:05:50 16° 110° (ESE) 19:08:21 435.950
CANX-2 26 Nov 19:05:37 19:08:11 16° 64° (ENE) 19:10:45 2200.000
VERMONT LUNAR 26 Nov 19:08:37 19:11:32 23° 205° (SSW) 19:14:27 437.305
COMPASS 1 26 Nov 19:09:07 19:10:33 12° 62° (ENE) 19:11:58 437.405
STRAND 1 26 Nov 19:20:22 19:25:30 79° 286° (WNW) 19:30:35 437.568
PRISM 26 Nov 19:26:17 19:29:31 21° 294° (WNW) 19:32:44 437.425
CINEMA 3 26 Nov 19:38:14 19:39:07 11° 61° (ENE) 19:40:00 145.822/145.860
CUTE 1.7 + AOD 2 26 Nov 19:38:47 19:42:31 32° 70° (ENE) 19:46:17 437.475
AIST 2 26 Nov 19:40:19 19:43:21 20° 111° (ESE) 19:46:26 435.215
GOMX 1 26 Nov 19:49:15 19:53:25 32° 70° (ENE) 19:57:21 467.674
UKube-1 26 Nov 20:07:57 20:11:19 22° 66° (ENE) 20:14:41 .
SEEDS 26 Nov 20:10:24 20:14:32 62° 74° (ENE) 20:18:42 437.485
CUBESAT XI-V 26 Nov 20:12:09 20:15:41 22° 295° (WNW) 20:19:11 437.345
FUNcube-1 26 Nov 20:14:15 20:15:44 12° 62° (ENE) 20:17:13 145.935
Oscar 11 26 Nov 20:18:13 20:21:57 30° 69° (ENE) 20:25:42 145.826/435.025
BRITE-PL 26 Nov 20:20:45 20:25:46 90° 258° (WSW) 20:30:24 437.365/2234.400
BEESAT 3 26 Nov 20:23:29 20:27:34 69° 305° (NW) 20:31:45 437.485
AAUSAT CUBESAT 2 26 Nov 20:25:43 20:29:50 69° 75° (ENE) 20:34:00 437.432
DELFI C3 26 Nov 20:27:44 20:31:18 30° 69° (ENE) 20:34:54 145.870
AIST 1 26 Nov 20:33:46 20:37:29 26° 287° (WNW) 20:41:14
PCSat 26 Nov 20:36:11 20:41:12 38° 309° (NW) 20:46:15 145.827
50 SAT 26 Nov 20:38:01 20:38:05 10° 61° (ENE) 20:38:08 437.505
BEESAT 2 26 Nov 20:39:39 20:43:41 53° 307° (NW) 20:47:48 435.950
CANX-2 26 Nov 20:39:39 20:43:44 48° 261° (W) 20:47:51 2200.000
UWE-3 26 Nov 20:40:02 20:43:31 26° 68° (ENE) 20:46:58 435.000/436.395/437.385
DOVE 4 26 Nov 20:41:04 20:45:40 81° 76° (ENE) 20:50:02 437.250
CUBEBUG 2 26 Nov 20:41:10 20:44:53 30° 70° (ENE) 20:48:33 437.445
COMPASS 1 26 Nov 20:41:34 20:45:42 69° 259° (WSW) 20:49:54 437.405
HO-68 26 Nov 20:42:59 20:50:01 57° 258° (WSW) 20:57:06 435.675
DX 1 26 Nov 20:43:13 20:47:29 52° 72° (ENE) 20:51:45 434.975-435.025
RS-15 26 Nov 20:48:10 20:56:20 23° 0° (N) 21:04:40 29.354- 29.394
HUMSAT D 26 Nov 20:51:27 20:54:15 18° 65° (ENE) 20:57:03 437.325/437.525
GONETS M04 26 Nov 20:58:22 21:05:36 30° 278° (W) 21:12:48
STRAND 1 26 Nov 21:02:29 21:03:49 11° 304° (WNW) 21:05:09 437.568
CINEMA 3 26 Nov 21:11:23 21:15:46 78° 258° (WSW) 21:20:01 145.822/145.860
ZACube-1 26 Nov 21:12:41 21:16:44 49° 73° (ENE) 21:20:46 437.345
CUTE 1.7 + AOD 2 26 Nov 21:15:11 21:18:30 22° 266° (W) 21:21:51 437.475
VELOX 1 26 Nov 21:16:40 21:20:48 37° 70° (ENE) 21:24:55 145.980
AIST 2 26 Nov 21:17:36 21:21:40 45° 309° (NW) 21:25:49 435.215
ESTCUBE 1 26 Nov 21:19:35 21:22:28 17° 63° (ENE) 21:25:22 437.505/2401.250
GOMX 1 26 Nov 21:27:34 21:31:33 26° 264° (W) 21:35:20 467.674
AISAT 26 Nov 21:43:03 21:47:31 73° 74° (ENE) 21:52:00 437.250
UKube-1 26 Nov 21:43:17 21:47:17 36° 262° (W) 21:51:19 .
FUNcube-1 26 Nov 21:47:23 21:51:34 67° 259° (WSW) 21:55:43 145.935
SEEDS 26 Nov 21:49:22 21:50:47 11° 271° (W) 21:52:13 437.485
QB50P1 26 Nov 21:51:36 21:52:18 10° 89° (E) 21:52:59 145.935-145.965
CUBEBUG 1 26 Nov 21:53:24 21:57:23 33° 69° (ENE) 22:01:22 437.445
Oscar 11 26 Nov 21:54:33 21:58:07 25° 265° (W) 22:01:42 145.826/435.025
TIGRISAT 26 Nov 21:57:27 22:00:42 20° 93° (E) 22:03:59 435.000
DELFI C3 26 Nov 22:03:26 22:06:38 22° 266° (W) 22:09:51 145.870
BEESAT 3 26 Nov 22:05:11 22:06:36 11° 325° (NW) 22:08:02 437.485
AAUSAT CUBESAT 2 26 Nov 22:05:41 22:06:00 10° 271° (W) 22:06:18 437.432
50 SAT 26 Nov 22:08:46 22:12:48 75° 258° (WSW) 22:16:50 437.505
UNISAT 6 26 Nov 22:11:07 22:14:58 28° 96° (E) 22:18:52 437.425
POPSAT HIP 1 26 Nov 22:14:25 22:17:30 19° 93° (E) 22:20:34 437.405
UWE-3 26 Nov 22:16:23 22:20:00 27° 264° (W) 22:23:36 435.000/436.395/437.385
CUBEBUG 2 26 Nov 22:18:13 22:21:37 23° 265° (W) 22:24:59 437.445
DX 1 26 Nov 22:21:32 22:24:02 15° 268° (W) 22:26:32 434.975-435.025
HUMSAT D 26 Nov 22:25:54 22:29:47 39° 262° (W) 22:33:41 437.325/437.525
CUSAT 1 26 Nov 22:34:21 22:37:53 20° 74° (ENE) 22:42:10 437.405
ANTELSAT 26 Nov 22:39:36 22:43:59 56° 100° (E) 22:48:28 437.575/2403.000
ISS 26 Nov 22:43:13 22:46:07 30° 137° (SE) 22:49:03 145.825
POLYITAN 1 26 Nov 22:47:46 22:51:51 46° 99° (E) 22:55:55 437.675
QB50P2 26 Nov 22:49:25 22:53:32 48° 100° (E) 22:57:37 145.880/145.840
ZACube-1 26 Nov 22:51:09 22:53:24 14° 269° (W) 22:55:39 437.345
VELOX 1 26 Nov 22:54:04 22:57:30 21° 266° (W) 23:00:56 145.980
ESTCUBE 1 26 Nov 22:54:28 22:58:55 54° 260° (W) 23:03:24 437.505/2401.250
DUCHIFAT 1 26 Nov 22:54:52 22:59:01 54° 100° (E) 23:03:08 145.980
AUBIESAT-1 26 Nov 22:58:07 23:00:14 14° 54° (NE) 23:02:26 437.475
TISAT 1 26 Nov 23:01:12 23:05:16 45° 72° (ENE) 23:09:21 437.305
RS-15 26 Nov 23:03:03 23:13:09 37° 34° (NE) 23:23:34 29.354- 29.394
M-CUBED/EXP-1 PRIME 26 Nov 23:03:20 23:06:00 16° 56° (NE) 23:08:47 437.505
DANDE 26 Nov 23:03:29 23:07:30 30° 77° (ENE) 23:12:40 436.750
SPROUT 26 Nov 23:13:38 23:17:50 53° 73° (ENE) 23:22:03 437.525
NANOSAT C BR1 26 Nov 23:14:23 23:18:38 89° 284° (WNW) 23:22:51 145.865
BEESAT 26 Nov 23:19:08 23:21:23 13° 60° (ENE) 23:23:38 436.000
AISAT 26 Nov 23:23:26 23:24:39 11° 271° (W) 23:25:52 437.250
QB50P1 26 Nov 23:24:27 23:28:40 69° 285° (WNW) 23:32:51 145.935-145.965
CUBEBUG 1 26 Nov 23:30:12 23:33:48 24° 265° (W) 23:37:25 437.445
BUGSAT 1 26 Nov 23:30:30 23:34:35 70° 285° (WNW) 23:38:36 437.445
TIGRISAT 26 Nov 23:33:27 23:37:36 40° 289° (WNW) 23:41:49 435.000
UNISAT 6 26 Nov 23:47:53 23:51:43 29° 292° (WNW) 23:55:37 437.425
POPSAT HIP 1 26 Nov 23:49:39 23:53:32 36° 290° (WNW) 23:57:24 437.405
MaSat-1 27 Nov 00:07:44 00:10:00 50° 62° (ENE) 00:12:19 437.345
ITUPSAT 1 27 Nov 00:12:41 00:17:10 41° 70° (ENE) 00:21:42 437.325
CUSAT 1 27 Nov 00:16:24 00:21:00 51° 263° (W) 00:27:08 437.405
ANTELSAT 27 Nov 00:17:42 00:20:23 16° 297° (WNW) 00:23:06 437.575/2403.000
ISS 27 Nov 00:19:35 00:22:42 39° 335° (NNW) 00:25:49 145.825
SWISSCUBE 27 Nov 00:23:01 00:27:42 57° 72° (ENE) 00:32:26 437.505
YUBILEINY 27 Nov 00:23:43 00:25:32 11° 71° (ENE) 00:27:20 435.215
POLYITAN 1 27 Nov 00:24:45 00:27:27 17° 296° (WNW) 00:30:10 437.675
QB50P2 27 Nov 00:26:28 00:29:05 16° 296° (WNW) 00:31:42 145.880/145.840
AUBIESAT-1 27 Nov 00:30:28 00:34:33 72° 253° (WSW) 00:39:03 437.475
DUCHIFAT 1 27 Nov 00:32:09 00:34:27 15° 297° (WNW) 00:36:45 145.980
M-CUBED/EXP-1 PRIME 27 Nov 00:36:31 00:40:31 56° 255° (WSW) 00:44:56 437.505
TISAT 1 27 Nov 00:38:39 00:41:20 16° 268° (W) 00:44:03 437.305
DANDE 27 Nov 00:46:49 00:50:57 32° 264° (W) 00:56:15 436.750
SPROUT 27 Nov 00:51:57 00:54:15 14° 269° (W) 00:56:33 437.525
BEESAT 27 Nov 00:53:47 00:58:34 78° 257° (WSW) 01:03:25 436.000
KKS-1 27 Nov 01:05:38 01:09:29 30° 68° (ENE) 01:13:21 437.445
Oscar 19 27 Nov 01:05:38 01:10:17 33° 96° (E) 01:14:54 437.125/150
RS-15 27 Nov 01:15:32 01:26:47 82° 240° (WSW) 01:38:32 29.354- 29.394
ITUPSAT 1 27 Nov 01:51:27 01:55:12 23° 266° (W) 01:59:00 437.325
ISS 27 Nov 01:57:41 02:00:00 18° 354° (N) 02:02:20 145.825
STARS 27 Nov 01:58:41 02:03:04 73° 75° (ENE) 02:07:28 437.465
ITAMSAT 1 27 Nov 02:00:47 02:05:40 41° 98° (E) 02:10:31 435.822/435.867
SWISSCUBE 27 Nov 02:02:57 02:05:56 16° 269° (W) 02:08:55 437.505
YUBILEINY 27 Nov 02:11:47 02:20:24 63° 92° (E) 02:29:00 435.215
HORYU 2 27 Nov 02:15:09 02:17:04 13° 90° (E) 02:18:59 437.375
Gurwin Techsat 1B 27 Nov 02:38:42 02:43:55 55° 100° (E) 02:49:06 435.225
KKS-1 27 Nov 02:42:20 02:46:06 27° 264° (W) 02:49:54 437.445
Oscar 19 27 Nov 02:45:01 02:49:33 32° 293° (WNW) 02:54:06 437.125/150
SO-50 27 Nov 03:04:28 03:08:40 40° 116° (ESE) 03:13:01 436.795
BEESAT 3 27 Nov 03:05:55 03:08:12 14° 38° (NE) 03:10:28 437.485
AO-7 27 Nov 03:20:55 03:27:45 27° 94° (E) 03:34:32 29.400- 29.500
BEESAT 2 27 Nov 03:21:53 03:24:43 17° 41° (NE) 03:27:31 435.950
RS-15 27 Nov 03:30:03 03:37:26 20° 261° (W) 03:45:03 29.354- 29.394
ISS 27 Nov 03:34:50 03:37:30 22° 15° (NNE) 03:40:09 145.825
STARS 27 Nov 03:39:10 03:40:03 11° 271° (W) 03:40:57 437.465
PCSat 27 Nov 03:39:46 03:44:43 34° 50° (NE) 03:49:37 145.827
ITAMSAT 1 27 Nov 03:40:42 03:44:57 26° 295° (WNW) 03:49:10 435.822/435.867
JAS-2 27 Nov 03:46:42 03:49:05 12° 82° (E) 03:51:23 435.910
HORYU 2 27 Nov 03:49:42 03:54:10 65° 286° (WNW) 03:58:37 437.375
MOZHAYETS 4 27 Nov 03:53:37 03:58:01 48° 72° (ENE) 04:02:29
AIST 2 27 Nov 04:00:55 04:04:11 21° 43° (NE) 04:07:26 435.215
YUBILEINY 27 Nov 04:10:16 04:17:46 30° 293° (WNW) 04:25:17 435.215
Gurwin Techsat 1B 27 Nov 04:19:34 04:23:29 21° 298° (WNW) 04:27:22 435.225
PRISM 27 Nov 04:42:06 04:45:46 30° 68° (ENE) 04:49:29 437.425
BEESAT 3 27 Nov 04:42:49 04:47:03 88° 236° (SW) 04:51:12 437.485
SO-50 27 Nov 04:45:25 04:49:20 28° 316° (NW) 04:53:23 436.795
BEESAT 2 27 Nov 04:59:15 05:03:27 67° 240° (WSW) 05:07:34 435.950
STRAND 1 27 Nov 04:59:32 05:03:22 22° 63° (ENE) 05:07:13 437.568
ISS 27 Nov 05:11:12 05:14:31 84° 34° (NNE) 05:17:49 145.825
AO-7 27 Nov 05:12:50 05:21:08 69° 293° (WNW) 05:29:24 29.400- 29.500
PCSat 27 Nov 05:23:10 05:28:09 38° 249° (WSW) 05:33:06 145.827
JAS-2 27 Nov 05:28:24 05:35:32 77° 103° (ESE) 05:41:45 435.910
CUTE-I 27 Nov 05:30:09 05:34:04 21° 92° (E) 05:37:58 437.470
MOZHAYETS 4 27 Nov 05:32:27 05:35:31 18° 269° (W) 05:38:37
CUBESAT XI-V 27 Nov 05:38:13 05:42:42 45° 71° (ENE) 05:47:12 437.345
AIST 2 27 Nov 05:38:56 05:43:08 53° 241° (WSW) 05:47:16 435.215
O/OREOS (USA 219) 27 Nov 05:52:32 05:57:02 88° 111° (ESE) 06:01:32 437.305
GONETS M04 27 Nov 06:12:21 06:15:41 13° 72° (ENE) 06:19:01
PRISM 27 Nov 06:17:53 06:21:19 24° 265° (W) 06:24:48 437.425
Cubesat XI-IV 27 Nov 06:28:04 06:33:24 70° 103° (ESE) 06:38:41 437.490
STRAND 1 27 Nov 06:37:12 06:42:12 51° 260° (W) 06:47:13 437.568
AIST 1 27 Nov 06:39:31 06:43:56 83° 82° (E) 06:48:16
ISS 27 Nov 06:49:20 06:50:42 12° 230° (SW) 06:52:05 145.825
AO-7 27 Nov 07:07:30 07:12:26 17° 314° (NW) 07:17:23 29.400- 29.500
CUTE-I 27 Nov 07:09:17 07:14:27 52° 289° (WNW) 07:19:34 437.470
JAS-2 27 Nov 07:14:36 07:19:39 21° 304° (NW) 07:24:20 435.910
CUBESAT XI-V 27 Nov 07:16:55 07:20:20 20° 268° (W) 07:23:47 437.345
O/OREOS (USA 219) 27 Nov 07:35:27 07:37:06 12° 311° (NW) 07:38:46 437.305
GONETS M04 27 Nov 08:02:00 08:10:42 69° 93° (E) 08:19:29
Cubesat XI-IV 27 Nov 08:09:34 08:12:54 17° 300° (WNW) 08:16:14 437.490
HO-68 27 Nov 08:10:18 08:16:16 28° 94° (E) 08:22:11 435.675
AAUSAT CUBESAT 2 27 Nov 08:11:22 08:12:21 11° 89° (E) 08:13:19 437.432
CANX-2 27 Nov 08:24:48 08:28:27 26° 95° (E) 08:32:05 2200.000
BRITE-PL 27 Nov 08:25:28 08:28:46 23° 95° (E) 08:32:07 437.365/2234.400
COMPASS 1 27 Nov 08:25:51 08:28:50 18° 93° (E) 08:31:48 437.405
DOVE 4 27 Nov 08:40:19 08:43:15 18° 93° (E) 08:46:13 437.250
QB50P1 27 Nov 08:46:41 08:47:04 10° 60° (ENE) 08:47:28 145.935-145.965
TIGRISAT 27 Nov 08:57:55 09:00:55 19° 65° (ENE) 09:03:56 435.000
CUTE 1.7 + AOD 2 27 Nov 08:58:51 09:03:06 58° 100° (E) 09:07:20 437.475
CINEMA 3 27 Nov 09:06:07 09:09:24 21° 94° (E) 09:12:45 145.822/145.860
POPSAT HIP 1 27 Nov 09:08:56 09:11:48 18° 65° (ENE) 09:14:40 437.405
UNISAT 6 27 Nov 09:11:40 09:15:15 27° 68° (ENE) 09:18:50 437.425
GOMX 1 27 Nov 09:27:35 09:31:46 82° 103° (ESE) 09:36:03 467.674
SEEDS 27 Nov 09:30:10 09:34:26 73° 285° (WNW) 09:38:42 437.485
UKube-1 27 Nov 09:30:20 09:34:19 34° 98° (E) 09:38:15 .
AISAT 27 Nov 09:35:31 09:37:36 13° 90° (E) 09:39:41 437.250
FUNcube-1 27 Nov 09:35:55 09:39:09 21° 94° (E) 09:42:26 145.935
ANTELSAT 27 Nov 09:39:55 09:44:04 53° 73° (ENE) 09:48:14 437.575/2403.000
Oscar 11 27 Nov 09:40:22 09:44:39 54° 100° (E) 09:48:54 145.826/435.025
POLYITAN 1 27 Nov 09:42:04 09:46:01 39° 71° (ENE) 09:49:59 437.675
DELFI C3 27 Nov 09:42:37 09:46:38 48° 99° (E) 09:50:38 145.870
QB50P2 27 Nov 09:43:28 09:47:28 41° 71° (ENE) 09:51:28 145.880/145.840
AAUSAT CUBESAT 2 27 Nov 09:44:15 09:48:29 68° 285° (WNW) 09:52:41 437.432
DUCHIFAT 1 27 Nov 09:48:31 09:52:34 45° 72° (ENE) 09:56:38 145.980
50 SAT 27 Nov 09:50:26 09:52:43 14° 92° (E) 09:54:59 437.505
SO-50 27 Nov 09:56:32 09:57:56 11° 30° (NNE) 09:59:21 436.795
HO-68 27 Nov 09:57:20 10:04:21 59° 292° (WNW) 10:11:19 435.675
CANX-2 27 Nov 10:00:41 10:04:21 28° 291° (WNW) 10:08:01 2200.000
COMPASS 1 27 Nov 10:00:45 10:04:43 39° 289° (WNW) 10:08:41 437.405
GONETS M04 27 Nov 10:01:03 10:08:17 28° 294° (WNW) 10:15:36
BRITE-PL 27 Nov 10:03:45 10:07:20 29° 291° (WNW) 10:10:58 437.365/2234.400
UWE-3 27 Nov 10:04:51 10:09:00 51° 100° (E) 10:13:14 435.000/436.395/437.385
DX 1 27 Nov 10:07:03 10:11:26 89° 104° (ESE) 10:15:46 434.975-435.025
CUBEBUG 2 27 Nov 10:07:29 10:11:42 64° 101° (E) 10:16:02 437.445
NANOSAT C BR1 27 Nov 10:07:57 10:12:12 76° 75° (ENE) 10:16:27 145.865
HUMSAT D 27 Nov 10:09:52 10:13:32 29° 96° (E) 10:17:14 437.325/437.525
DOVE 4 27 Nov 10:17:18 10:21:11 38° 289° (WNW) 10:25:09 437.250
QB50P1 27 Nov 10:18:03 10:22:19 83° 258° (WSW) 10:26:35 145.935-145.965
BUGSAT 1 27 Nov 10:21:15 10:25:30 89° 76° (ENE) 10:29:45 437.445
TIGRISAT 27 Nov 10:33:25 10:37:25 39° 262° (W) 10:41:26 435.000
CUTE 1.7 + AOD 2 27 Nov 10:36:17 10:38:34 14° 297° (WNW) 10:40:51 437.475
ZACube-1 27 Nov 10:36:45 10:41:00 82° 284° (WNW) 10:45:20 437.345
CINEMA 3 27 Nov 10:42:53 10:46:42 33° 290° (WNW) 10:50:36 145.822/145.860
VELOX 1 27 Nov 10:43:02 10:47:27 69° 102° (ESE) 10:51:50 145.980
POPSAT HIP 1 27 Nov 10:43:20 10:47:24 43° 261° (W) 10:51:28 437.405
ESTCUBE 1 27 Nov 10:47:00 10:50:59 30° 96° (E) 10:54:56 437.505/2401.250
UNISAT 6 27 Nov 10:48:21 10:51:59 27° 264° (W) 10:55:39 437.425
UKube-1 27 Nov 11:06:54 11:10:18 23° 294° (WNW) 11:13:41 .
AISAT 27 Nov 11:10:16 11:14:38 60° 287° (WNW) 11:18:58 437.250
FUNcube-1 27 Nov 11:11:45 11:15:36 35° 290° (WNW) 11:19:30 145.935
CUBEBUG 1 27 Nov 11:17:44 11:22:04 60° 101° (E) 11:26:20 437.445
Oscar 11 27 Nov 11:17:49 11:20:23 16° 297° (WNW) 11:22:57 145.826/435.025
ANTELSAT 27 Nov 11:19:04 11:21:13 14° 269° (W) 11:23:22 437.575/2403.000
DELFI C3 27 Nov 11:19:05 11:21:34 16° 296° (WNW) 11:24:02 145.870
POLYITAN 1 27 Nov 11:19:09 11:22:08 18° 267° (W) 11:25:07 437.675
QB50P2 27 Nov 11:20:39 11:23:34 18° 267° (W) 11:26:29 145.880/145.840
50 SAT 27 Nov 11:24:22 11:28:16 46° 287° (WNW) 11:32:11 437.505
DUCHIFAT 1 27 Nov 11:26:02 11:28:41 16° 268° (W) 11:31:20 145.980
SO-50 27 Nov 11:34:57 11:39:40 48° 51° (NE) 11:44:24 436.795
UWE-3 27 Nov 11:42:40 11:45:11 16° 296° (WNW) 11:47:43 435.000/436.395/437.385
HUMSAT D 27 Nov 11:45:52 11:49:14 24° 292° (WNW) 11:52:38 437.325/437.525
CUBEBUG 2 27 Nov 11:46:02 11:47:57 13° 297° (WNW) 11:49:52 437.445
HO-68 27 Nov 11:47:55 11:50:35 12° 312° (NW) 11:53:16 435.675
AUBIESAT-1 27 Nov 12:15:58 12:16:26 10° 92° (E) 12:16:55 437.475
M-CUBED/EXP-1 PRIME 27 Nov 12:20:35 12:22:55 13° 94° (E) 12:25:13 437.505
TISAT 1 27 Nov 12:21:14 12:25:28 77° 103° (ESE) 12:29:39 437.305
YUBILEINY 27 Nov 12:21:23 12:28:58 32° 68° (ENE) 12:36:28 435.215
VELOX 1 27 Nov 12:21:29 12:23:29 13° 299° (WNW) 12:25:28 145.980
DANDE 27 Nov 12:22:18 12:24:20 19° 94° (E) 12:26:17 436.750
Oscar 19 27 Nov 12:23:11 12:28:07 51° 71° (ENE) 12:33:04 437.125/150
ESTCUBE 1 27 Nov 12:23:55 12:27:47 28° 293° (WNW) 12:31:37 437.505/2401.250
Gurwin Techsat 1B 27 Nov 12:24:12 12:26:40 13° 58° (ENE) 12:29:08 435.225
SWISSCUBE 27 Nov 12:24:34 12:27:00 14° 90° (E) 12:29:25 437.505
SPROUT 27 Nov 12:35:44 12:40:02 84° 284° (WNW) 12:44:18 437.525
BEESAT 27 Nov 12:54:04 12:58:03 25° 95° (E) 13:02:00 436.000
CUBEBUG 1 27 Nov 12:55:38 12:57:56 14° 298° (WNW) 13:00:14 437.445
HORYU 2 27 Nov 13:14:57 13:17:14 14° 61° (ENE) 13:19:31 437.375
SO-50 27 Nov 13:16:06 13:19:57 24° 248° (WSW) 13:23:49 436.795
ITAMSAT 1 27 Nov 13:19:24 13:24:34 68° 73° (ENE) 13:29:45 435.822/435.867
PHONESAT 2.4 27 Nov 13:32:46 13:35:05 16° 150° (SSE) 13:37:24 2401.200-2431.200
CUSAT 1 27 Nov 13:32:49 13:34:47 19° 287° (WNW) 13:36:46 437.405
VERMONT LUNAR 27 Nov 13:36:54 13:39:42 21° 154° (SSE) 13:42:32 437.305
RS-15 27 Nov 13:37:01 13:40:18 12° 94° (E) 13:43:34 29.354- 29.394
AUBIESAT-1 27 Nov 13:47:08 13:52:05 86° 108° (ESE) 13:56:53 437.475
STARS 27 Nov 13:50:01 13:52:00 13° 90° (E) 13:53:58 437.465
ITUPSAT 1 27 Nov 13:50:09 13:55:00 90° 104° (ESE) 13:59:47 437.325
M-CUBED/EXP-1 PRIME 27 Nov 13:53:30 13:58:28 77° 290° (WNW) 14:03:17 437.505
TISAT 1 27 Nov 13:59:41 14:00:41 11° 300° (WNW) 14:01:42 437.305
Gurwin Techsat 1B 27 Nov 14:00:32 14:05:51 90° 253° (WSW) 14:11:12 435.225
SWISSCUBE 27 Nov 14:00:33 14:05:19 66° 287° (WNW) 14:10:02 437.505
Oscar 19 27 Nov 14:04:04 14:07:45 20° 268° (W) 14:11:27 437.125/150
YUBILEINY 27 Nov 14:17:46 14:26:15 59° 269° (W) 14:34:40 435.215
AO-7 27 Nov 14:20:37 14:28:10 41° 60° (ENE) 14:35:46 29.400- 29.500
O/OREOS (USA 219) 27 Nov 14:23:11 14:26:38 21° 55° (NE) 14:30:05 437.305
BEESAT 27 Nov 14:31:35 14:35:57 36° 291° (WNW) 14:40:17 436.000
KKS-1 27 Nov 14:32:07 14:36:29 54° 100° (E) 14:40:49 437.445
HORYU 2 27 Nov 14:49:00 14:53:23 64° 258° (WSW) 14:57:48 437.375
ITAMSAT 1 27 Nov 15:01:31 15:04:32 15° 270° (W) 15:07:33 435.822/435.867
PHONESAT 2.4 27 Nov 15:09:48 15:13:21 45° 166° (SSE) 15:16:55 2401.200-2431.200
MaSat-1 27 Nov 15:10:27 15:13:15 42° 299° (WNW) 15:15:49 437.345
VERMONT LUNAR 27 Nov 15:14:15 15:17:47 53° 170° (S) 15:21:20 437.305
AUBIESAT-1 27 Nov 15:23:49 15:26:21 14° 306° (NW) 15:28:52 437.475
STARS 27 Nov 15:24:32 15:28:53 61° 287° (WNW) 15:33:12 437.465
ITUPSAT 1 27 Nov 15:30:31 15:32:08 12° 302° (WNW) 15:33:46 437.325
M-CUBED/EXP-1 PRIME 27 Nov 15:30:55 15:32:39 12° 307° (NW) 15:34:21 437.505
JAS-2 27 Nov 15:39:13 15:46:21 42° 65° (ENE) 15:53:34 435.910
RS-15 27 Nov 15:39:28 15:50:11 63° 115° (ESE) 16:00:52 29.354- 29.394
Gurwin Techsat 1B 27 Nov 15:45:02 15:46:32 11° 273° (W) 15:48:02 435.225
MOZHAYETS 4 27 Nov 15:50:41 15:51:59 11° 88° (E) 15:53:17
O/OREOS (USA 219) 27 Nov 16:02:00 16:06:13 41° 253° (WSW) 16:10:25 437.305
KKS-1 27 Nov 16:10:00 16:12:41 16° 297° (WNW) 16:15:23 437.445
AO-7 27 Nov 16:12:52 16:20:48 49° 259° (W) 16:28:48 29.400- 29.500
Cubesat XI-IV 27 Nov 16:13:18 16:16:49 18° 60° (ENE) 16:20:19 437.490
PHONESAT 2.4 27 Nov 16:48:17 16:51:58 62° 183° (S) 16:55:39 2401.200-2431.200
CUTE-I 27 Nov 16:52:30 16:57:23 37° 68° (ENE) 17:02:16 437.470
VERMONT LUNAR 27 Nov 16:52:32 16:56:06 57° 187° (S) 16:59:40 437.305
